MIDAS 5 DEB, 274

Orbit data source: Space-Track

MIDAS 5 DEB, 274 is space debris in LEO originally from a launch on Mon, 09 Apr 1962 UTC launched from the Air Force Western Test Range (AFWTR). Debris objects in space refer to the collection of defunct objects orbiting the Earth. Examples of debris include non-operational satellites, rocket bodies, and fragments generated from explosions, collisions, or faulty payload assembly.

Loading next visibility...
MIDAS 5 DEB details
Identifier
274, 1962-010D
Orbit
LEO
Last TLE update11 hours ago
Origin
Flag of USUSAF SSD (US)
ManufacturerUnknown
MissionSpacecraft
Bus & MotorUnknown
Mass~10 kg wet, ~10 kg dry
Launch date (UTC)
1962-04-09 (63 years ago)
Launch vehicleUnknown
Launch site
Air Force Western Test Range (AFWTR)
Object type
Payload
Rocket body
Debris
Shape & HBRUnknown
Radar Cross SectionMedium (>0.1 m² and <1 m²)

Expand to show TLE details & history

TLE from 11 hours ago
0 MIDAS 5 DEB
1   274U 62010D   24356.15642184 -.00000070  00000-0 -15405-1 0  9998
2   274  86.6567  52.1867 0355358 112.6713 251.2166  9.39393549150195
Epoch: 2024-12-21T03:45Z
Definitive object data (Epoch: 2024-12-21T03:45:14.846Z)
Latitude-0.00002°
Longitude-94.33678°
Altitude3,231.202 km
Speed6.401 km/s
True Right ascension03h 28m 44s
True Declination0° 00' 00"
Sunlit
Object was in daylight at TLE epoch
Visualization TLE readout
Latitude50.41099°
Longitude-90.36688°
Altitude2,948.502 km
Speed6.6 km/s
Apparent Right ascension02h 40m 30s
Apparent Declination16° 39' 48"
Sunlit
Object is in full shadow
Visualization observer readout
Local Sidereal Time13:22:05
Azimuth338.086° N
Elevation-30.543°
Doppler factor1
Orbital elements
Apogee altitude3,444.547 km
Perigee altitude2,770.39 km
Semi-major axis9,485.605 km
Eccentricity0.0355358
Inclination86.6567°
RAAN52.1867°
Arg. of periapsis112.6713°
True anomaly247.41854°
Mean anomaly251.2166°
Eccentric anomaly249.31184°
Mean motion2.34934 °/min
BSTAR-0.015405
Orbital period153.23 mins
Loading maneuver chart data...
Loading historical data...
Loading historical data...
Loading historical data...
Loading historical data...
Loading historical data...
Loading historical data...
Loading historical data...

MIDAS 5 DEB Visibility forecast

Observer location: undefined°, undefined

Span
Click to sort rows by Start time (UTC) header in descending order
Start Az.
Max El. time (UTC)
Max El. Az.
Max El.
End time (UTC)
End Az.
27 mins2024-12-21 14:41:58.427Z6.428° NNE2024-12-21 14:54:58.427Z75.539° E35.808°2024-12-21 15:08:58.427Z147.439° SSE
25 mins2024-12-21 17:16:58.427Z346.361° N2024-12-21 17:28:58.427Z277.883° WNW36.706°2024-12-21 17:41:58.427Z214.161° SW
26 mins2024-12-22 02:49:58.427Z137.158° SSE2024-12-22 03:02:58.427Z77.764° E33.758°2024-12-22 03:15:58.427Z13.609° NNE
28 mins2024-12-22 05:21:58.427Z205.191° SW2024-12-22 05:35:58.427Z277.951° WNW39.627°2024-12-22 05:49:58.427Z355.637° N
21 mins2024-12-22 13:43:58.427Z18.385° NNE2024-12-22 13:53:58.427Z67.863° E23.881°2024-12-22 14:04:58.427Z118.393° SE
|